Weather Roundup
Issued by NWS

Home | Current Version | Previous Version | Text Only | Print | Product List | Glossary On
Versions: 1 2 3 4 5 6 7 8 9 10 11 12 13 14 15 16 17 18 19 20 21 22 23 24 25 26 27 28 29 30 31 32 33 34 35 36 37 38 39 40 41 42 43 44 45 46 47 48 49 50
113
NZUS93 KARX 260659
HRRWXR

CURRENT HOURLY OBSERVATIONS ACROSS
MUCH OF THE UPPER MISSISSIPPI VALLEY
NATIONAL WEATHER SERVICE LA CROSSE WI
200 AM CDT TUE JUL 26 2016


...SOUTHEAST MINNESOTA...


CITY           SKY/WX    TMP DP  RH WIND       PRES   REMARKS
ROCHESTER      CLEAR     67  64  90 SW6       30.09S
ROCHESTER/MAYO FAIR      70  65  85 CALM      30.08S
WINONA         PTCLDY    68  66  94 CALM      30.06S
AUSTIN         CLEAR     66  63  88 CALM      30.08F
ALBERT LEA     CLEAR     66  66 100 CALM      30.08F
DODGE CENTER   CLEAR     64  61  88 SW5       30.09S
PRESTON        CLEAR     66  62  86 CALM      30.09S
OWATONNA       CLEAR     66  63  88 CALM      30.08S
FARIBAULT      CLEAR     64  63  94 CALM      30.07S
$$

...ELSEWHERE IN MINNESOTA...


CITY           SKY/WX    TMP DP  RH WIND       PRES   REMARKS
MINNEAPOLIS    CLEAR     75  65  70 SW3       30.04F
INTNL FALLS    MOCLDY    61  58  90 CALM      29.97S
DULUTH         CLEAR     67  63  87 W8        30.01S
RED WING       PTCLDY    66  64  94 CALM      30.04S
REDWOOD FALLS  CLOUDY    70  64  81 S9        30.05S
MANKATO        CLEAR     70  63  78 S6        30.07S
WORTHINGTON    CLEAR     69  63  81 S7        30.10S
FAIRMONT       CLEAR     68  63  83 S7        30.07F
$$

...SOUTHWEST WISCONSIN...


CITY           SKY/WX    TMP DP  RH WIND       PRES   REMARKS
LA CROSSE      PTCLDY    69  66  90 SE5       30.05S
PRAIRIE DU CHI CLEAR     65  63  92 CALM      30.06S
BOSCOBEL       FOG       63  62  97 CALM      30.06S VSB 3/4
LONE ROCK      PTCLDY    64  63  96 CALM      30.06S FOG
PLATTEVILLE    CLEAR     66  66  97 N5        30.07S
FORT MC COY    CLEAR     59  59  99 CALM      30.07S
CAMP DOUGLAS   FOG       57  57 100 CALM      30.06S VSB 3/4
MAUSTON-NEW LI SUNNY     63  62  97 NW3       30.05S
VIROQUA        FAIR      64  64 100 CALM      30.08S
WIS DELLS      NOT AVBL
$$

...ELSEWHERE IN WISCONSIN...


CITY           SKY/WX    TMP DP  RH WIND       PRES   REMARKS
MILWAUKEE      CLEAR     70  63  78 NW3       30.03S
MADISON        PTCLDY    66  64  93 CALM      30.04F
GREEN BAY      PTCLDY    65  65 100 W7        30.02S
EAU CLAIRE     NOT AVBL
BLACK RVR FLS  FAIR      59  59 100 CALM      30.05F
MEDFORD        CLEAR     57  57 100 CALM      30.07S FOG
WAUSAU         CLEAR     65  61  87 CALM      30.05S
WIS RAPIDS     CLEAR     63  60  90 CALM      30.07S FOG
MARSHFIELD     CLEAR     65  60  84 CALM      30.06S
RICE LAKE      FOG       64  63  95 CALM      30.06S VSB 1/2
$$

...NORTHEAST IOWA...


CITY           SKY/WX    TMP DP  RH WIND       PRES   REMARKS
WATERLOO       CLEAR     66  63  90 CALM      30.07R
DUBUQUE        CLEAR     69  62  78 CALM      30.07S
DECORAH        CLEAR     66  66 100 CALM      30.08R
MASON CITY     CLEAR     63  62  97 CALM      30.10F
CHARLES CITY   CLEAR     64  64 100 CALM      30.09S
OELWEIN        CLEAR     66  63  88 N5        30.09R
$$

...ELSEWHERE IN IOWA...


CITY           SKY/WX    TMP DP  RH WIND       PRES   REMARKS
DES MOINES     CLEAR     73  67  81 CALM      30.07S
IOWA CITY      PTCLDY    67  64  90 W3        30.07S
FORT DODGE       N/A     66  64  94 CALM      30.10S VSB 1/2
MARSHALLTOWN   CLEAR     64  64 100 NW3       30.08S
CEDAR RAPIDS   PTCLDY    66  65  96 NW3       30.06S
$$

...NORTHERN ILLINOIS...


CITY           SKY/WX    TMP DP  RH WIND       PRES   REMARKS
CHICAGO-OHARE  PTCLDY    74  64  71 CALM      30.03S
CHICAGO-MIDWAY MOCLDY    77  63  61 E3        30.02F
MOLINE         CLOUDY    68  64  87 CALM      30.04S
ROCKFORD       CLEAR     67  65  93 CALM      30.05S
PEORIA         PTCLDY    71  69  93 CALM      30.03F
$$

NOTE: "FAIR" INDICATES FEW OR NO CLOUDS BELOW 12,000 FEET WITH NO
SIGNIFICANT WEATHER AND/OR OBSTRUCTIONS TO VISIBILITY. WIND
SPEEDS ARE IN MILES-PER-HOUR.




USA.gov is the U.S. government's official web portal to all federal, state and local government web resources and services.